Regional Weather Roundup
Issued by NWS

Home | Current Version | Previous Version | Text Only | Print | Product List | Glossary On
Versions: 1 2 3 4 5 6 7 8 9 10 11 12 13 14 15 16 17 18 19 20 21 22 23 24 25 26 27 28 29 30 31 32 33 34 35 36 37 38 39 40 41 42 43 44 45 46 47 48 49 50
758
ASUS44 KLIX 230805
RWRLA
LOUISIANA WEATHER ROUNDUP
NATIONAL WEATHER SERVICE NEW ORLEANS LA
300 AM CDT WED JUL 23 2014

NOTE: "FAIR" INDICATES FEW OR NO CLOUDS BELOW 12,000 FEET WITH NO
      SIGNIFICANT WEATHER AND/OR OBSTRUCTIONS TO VISIBILITY.
      SKY/WX - SKY CONDITION AND SIGNIFICANT WEATHER.
      TMP - AIR TEMPERATURE.    DP   - DEWPOINT TEMPERATURE.
      RH  - RELATIVE HUMIDITY.  PRES - PRESSURE.
      HX  - HEAT INDEX.         WCI  - WIND CHILL INDEX.

*  THESE STATIONS ARE NOT NWS OR FAA STATIONS AND ARE NOT UNDER
   NWS QUALITY CONTROL.

LAZ040-048-061>063-065-066-069-230900-
SOUTHEAST LOUISIANA

CITY           SKY/WX    TMP DP  RH WIND       PRES   REMARKS
N.O. AUDUBON   NOT AVBL
N.O. INTL ARPT CLOUDY    78  72  81 E5        30.01F
N.O. LAKEFRONT PTCLDY    79  73  82 E10       30.02S
N.O. DOWNTOWN* FAIR      79  70  73 N5        30.01F
SLIDELL        PTCLDY    72  68  87 CALM      30.01F
BATON ROUGE    CLEAR     72  70  93 CALM      30.02S
BOOTHVILLE     CLOUDY    78  75  90 SE3       30.01S
BELLE CHASSE   MOCLDY    76  72  87 NE3       30.00F
BOGALUSA*        N/A     70  67  90 CALM      30.03F
GALLIANO*      NOT AVBL
NEW ROADS*     FAIR      72  71  95 E3        30.02S
GONZALES*      FAIR      74  74 100 CALM      30.01S
HAMMOND*       CLEAR     72  68  88 CALM      30.03S
HOUMA*         CLOUDY    76  72  87 CALM      30.00F
PORT FOURCHON* CLOUDY    77  73  88 N5        30.02F

$$

LAZ041-044-053-054-230900-
SOUTHWEST LOUISIANA

CITY           SKY/WX    TMP DP  RH WIND       PRES   REMARKS
LAKE CHARLES   CLEAR     75  73  93 CALM      30.01S
LAFAYETTE      CLEAR     75  72  90 NE3       30.01F
PATTERSON      PTCLDY    75  73  94 NE7       30.04S
SALT POINT       N/A     80  77  90 CALM      29.99S
NEW IBERIA     CLEAR     76  73  91 NE6       30.00F
CHENAULT AIRPK CLEAR     76  72  86 CALM      30.02S

$$

LAZ027-028-230900-
CENTRAL LOUISIANA

CITY           SKY/WX    TMP DP  RH WIND       PRES   REMARKS
FORT POLK      CLEAR     75  72  90 CALM      30.03S
ALEXANDRIA INT CLEAR     73  72  96 CALM      30.01F FOG
ALEXANDRIA     CLEAR     73  70  90 CALM      30.03S

$$

LAZ001-002-230900-
NORTHWEST LOUISIANA

CITY           SKY/WX    TMP DP  RH WIND       PRES   REMARKS
SHREVEPORT     CLEAR     73  70  90 CALM      30.04F
BARKSDALE AFB  CLEAR     73  71  95 CALM      30.05S
DTN SHREVEPORT CLEAR     73  70  90 CALM      30.05S

$$

LAZ014-016-230900-
NORTHEAST LOUISIANA

CITY           SKY/WX    TMP DP  RH WIND       PRES   REMARKS
MONROE         CLEAR     73  71  93 CALM      30.06R
TALLULAH       MOCLDY    71  70  96 CALM      30.04R FOG

$$




USA.gov is the U.S. government's official web portal to all federal, state and local government web resources and services.